When you browse on this site, cookies collect data to enhance your experience and personalize the content and advertising you see.
Visit our Privacy Policy to learn more. By continuing to use the site, you agree to this use of cookies and data.
  • In Hungary
  • List of Countries
  • For 7 days
  • Water Temperature
  • Weather Map
  • News
  • Weather Widgets
  • user-avatar
    Login

    Hourly Weather Amritsar

    Today, 15 December, Sunday

    Time Temperature Precipitation Wind Pressure Humidity
    00:00 +13°C° 0 mm 1 mps 745 mmHg 76%
    01:00 +13°C° 0 mm 1 mps 744 mmHg 78%
    02:00 +12°C° 0 mm 2 mps 744 mmHg 80%
    03:00 +12°C° 0 mm 2 mps 744 mmHg 81%
    04:00 +12°C° 0 mm 2 mps 744 mmHg 82%
    05:00 +11°C° 0 mm 1 mps 744 mmHg 82%
    06:00 +12°C° 0 mm 1 mps 744 mmHg 80%
    07:00 +12°C° 0 mm 1 mps 744 mmHg 79%
    08:00 +12°C° 0 mm 1 mps 744 mmHg 77%
    09:00 +14°C° 0 mm 1 mps 744 mmHg 69%
    10:00 +16°C° 0 mm 1 mps 744 mmHg 62%
    11:00 +17°C° 0 mm 2 mps 744 mmHg 53%
    12:00 +18°C° 0 mm 2 mps 744 mmHg 50%
    13:00 +18°C° 0 mm 2 mps 744 mmHg 47%
    14:00 +19°C° 0 mm 2 mps 743 mmHg 44%
    15:00 +18°C° 0 mm 2 mps 743 mmHg 48%
    16:00 +18°C° 0 mm 1 mps 743 mmHg 52%
    17:00 +16°C° 0 mm 1 mps 742 mmHg 55%
    18:00 +15°C° 0 mm 1 mps 743 mmHg 58%
    19:00 +14°C° 0 mm 1 mps 743 mmHg 60%
    20:00 +14°C° 0 mm 1 mps 744 mmHg 62%
    21:00 +13°C° 0 mm 1 mps 744 mmHg 63%
    22:00 +13°C° 0 mm 1 mps 744 mmHg 64%
    23:00 +13°C° 0 mm 1 mps 744 mmHg 65%

    Tomorrow, 16 December, Monday

    Time Temperature Precipitation Wind Pressure Humidity
    00:00 +12°C° 0 mm 1 mps 744 mmHg 67%
    01:00 +12°C° 0 mm 1 mps 743 mmHg 68%
    02:00 +12°C° 0 mm 1 mps 743 mmHg 69%
    03:00 +11°C° 0 mm 1 mps 743 mmHg 69%
    04:00 +11°C° 0 mm 1 mps 743 mmHg 69%
    05:00 +11°C° 0 mm 1 mps 743 mmHg 70%
    06:00 +11°C° 0 mm 1 mps 743 mmHg 69%
    07:00 +11°C° 0 mm 1 mps 743 mmHg 69%
    08:00 +12°C° 0 mm 1 mps 743 mmHg 68%
    09:00 +13°C° 0 mm 2 mps 743 mmHg 61%
    10:00 +15°C° 0 mm 2 mps 744 mmHg 54%
    11:00 +17°C° 0 mm 2 mps 744 mmHg 48%
    12:00 +18°C° 0 mm 2 mps 743 mmHg 45%
    13:00 +19°C° 0 mm 2 mps 743 mmHg 42%
    14:00 +20°C° 0 mm 2 mps 742 mmHg 40%
    15:00 +18°C° 0 mm 2 mps 742 mmHg 43%
    16:00 +17°C° 0 mm 2 mps 742 mmHg 47%
    17:00 +16°C° 0 mm 2 mps 742 mmHg 50%
    18:00 +15°C° 0 mm 2 mps 742 mmHg 52%
    19:00 +14°C° 0 mm 1 mps 742 mmHg 53%
    20:00 +14°C° 0 mm 1 mps 743 mmHg 54%
    21:00 +13°C° 0 mm 1 mps 743 mmHg 55%
    22:00 +13°C° 0 mm 1 mps 743 mmHg 55%
    23:00 +13°C° 0 mm 1 mps 743 mmHg 56%

    Day after tomorrow, 17 December, Tuesday

    Time Temperature Precipitation Wind Pressure Humidity
    00:00 +12°C° 0 mm 1 mps 743 mmHg 56%
    01:00 +12°C° 0 mm 1 mps 743 mmHg 56%
    02:00 +12°C° 0 mm 1 mps 743 mmHg 57%
    03:00 +11°C° 0 mm 1 mps 743 mmHg 56%
    04:00 +11°C° 0 mm 1 mps 743 mmHg 56%
    05:00 +10°C° 0 mm 1 mps 743 mmHg 56%
    06:00 +11°C° 0 mm 1 mps 743 mmHg 55%
    07:00 +10°C° 0 mm 2 mps 743 mmHg 55%
    08:00 +10°C° 0 mm 2 mps 744 mmHg 54%
    09:00 +13°C° 0 mm 2 mps 744 mmHg 48%
    10:00 +15°C° 0 mm 2 mps 744 mmHg 42%
    11:00 +18°C° 0 mm 2 mps 744 mmHg 36%
    12:00 +19°C° 0 mm 2 mps 743 mmHg 34%
    13:00 +19°C° 0 mm 3 mps 743 mmHg 32%
    14:00 +20°C° 0 mm 3 mps 742 mmHg 30%
    15:00 +19°C° 0 mm 2 mps 742 mmHg 33%
    16:00 +17°C° 0 mm 2 mps 742 mmHg 37%
    17:00 +16°C° 0 mm 2 mps 741 mmHg 40%
    18:00 +15°C° 0 mm 2 mps 742 mmHg 40%
    19:00 +14°C° 0 mm 1 mps 742 mmHg 40%
    20:00 +13°C° 0 mm 1 mps 743 mmHg 40%
    21:00 +13°C° 0 mm 1 mps 742 mmHg 40%
    22:00 +12°C° 0 mm 1 mps 742 mmHg 41%
    23:00 +12°C° 0 mm 1 mps 742 mmHg 41%

    18 December, Wednesday

    Time Temperature Precipitation Wind Pressure Humidity
    00:00 +12°C° 0 mm 1 mps 742 mmHg 41%
    01:00 +11°C° 0 mm 1 mps 742 mmHg 41%
    02:00 +11°C° 0 mm 1 mps 742 mmHg 42%
    03:00 +10°C° 0 mm 1 mps 742 mmHg 42%
    04:00 +10°C° 0 mm 1 mps 742 mmHg 43%
    05:00 +10°C° 0 mm 1 mps 741 mmHg 43%
    06:00 +10°C° 0 mm 1 mps 742 mmHg 43%
    07:00 +10°C° 0 mm 1 mps 742 mmHg 43%
    08:00 +11°C° 0 mm 1 mps 742 mmHg 44%
    09:00 +13°C° 0 mm 1 mps 742 mmHg 39%
    10:00 +15°C° 0 mm 2 mps 742 mmHg 33%
    11:00 +17°C° 0 mm 2 mps 743 mmHg 28%
    12:00 +18°C° 0 mm 2 mps 742 mmHg 27%
    13:00 +19°C° 0 mm 2 mps 742 mmHg 25%
    14:00 +20°C° 0 mm 2 mps 741 mmHg 24%
    15:00 +19°C° 0 mm 1 mps 741 mmHg 27%
    16:00 +18°C° 0 mm 1 mps 741 mmHg 30%
    17:00 +15°C° 0 mm 1 mps 740 mmHg 34%
    18:00 +15°C° 0 mm 1 mps 741 mmHg 35%
    19:00 +14°C° 0 mm 1 mps 742 mmHg 36%
    20:00 +12°C° 0 mm 0 mps 742 mmHg 37%
    21:00 +13°C° 0 mm 1 mps 742 mmHg 38%
    22:00 +13°C° 0 mm 1 mps 742 mmHg 38%
    23:00 +12°C° 0 mm 1 mps 742 mmHg 39%

    19 December, Thursday

    Time Temperature Precipitation Wind Pressure Humidity
    00:00 +12°C° 0 mm 1 mps 742 mmHg 40%
    01:00 +12°C° 0 mm 1 mps 742 mmHg 40%
    02:00 +12°C° 0 mm 1 mps 742 mmHg 41%
    03:00 +11°C° 0 mm 1 mps 741 mmHg 42%
    04:00 +10°C° 0 mm 0 mps 741 mmHg 42%
    05:00 +9°C° 0 mm 0 mps 741 mmHg 43%
    06:00 +10°C° 0 mm 0 mps 741 mmHg 43%
    07:00 +10°C° 0 mm 0 mps 742 mmHg 43%
    08:00 +11°C° 0 mm 0 mps 742 mmHg 43%
    09:00 +14°C° 0 mm 1 mps 742 mmHg 38%
    10:00 +16°C° 0 mm 1 mps 742 mmHg 33%
    11:00 +19°C° 0 mm 1 mps 742 mmHg 29%
    12:00 +19°C° 0 mm 1 mps 742 mmHg 27%
    13:00 +20°C° 0 mm 1 mps 741 mmHg 25%
    14:00 +20°C° 0 mm 2 mps 740 mmHg 23%
    15:00 +18°C° 0 mm 2 mps 740 mmHg 25%
    16:00 +18°C° 0 mm 1 mps 740 mmHg 28%
    17:00 +15°C° 0 mm 1 mps 740 mmHg 31%
    18:00 +15°C° 0 mm 1 mps 740 mmHg 32%
    19:00 +14°C° 0 mm 1 mps 740 mmHg 32%
    20:00 +13°C° 0 mm 1 mps 741 mmHg 33%
    21:00 +13°C° 0 mm 1 mps 740 mmHg 33%
    22:00 +12°C° 0 mm 0 mps 740 mmHg 33%
    23:00 +12°C° 0 mm 0 mps 740 mmHg 34%

    20 December, Friday

    Time Temperature Precipitation Wind Pressure Humidity
    00:00 +12°C° 0 mm 0 mps 740 mmHg 33%
    01:00 +14°C° 0 mm 1 mps 740 mmHg 32%
    02:00 +14°C° 0 mm 1 mps 740 mmHg 31%
    03:00 +14°C° 0 mm 1 mps 740 mmHg 31%
    04:00 +14°C° 0 mm 1 mps 739 mmHg 31%
    05:00 +14°C° 0 mm 1 mps 739 mmHg 31%
    06:00 +14°C° 0 mm 1 mps 740 mmHg 34%
    07:00 +14°C° 0 mm 1 mps 740 mmHg 36%
    08:00 +14°C° 0 mm 1 mps 741 mmHg 38%
    09:00 +15°C° 0 mm 1 mps 741 mmHg 37%
    10:00 +16°C° 0 mm 1 mps 741 mmHg 35%
    11:00 +19°C° 0 mm 1 mps 742 mmHg 34%
    12:00 +19°C° 0 mm 1 mps 741 mmHg 34%
    13:00 +19°C° 0 mm 1 mps 741 mmHg 35%
    14:00 +18°C° 0 mm 2 mps 741 mmHg 35%
    15:00 +16°C° 0 mm 2 mps 740 mmHg 45%
    16:00 +15°C° 0 mm 2 mps 740 mmHg 55%
    17:00 +12°C° 0 mm 3 mps 740 mmHg 64%
    18:00 +13°C° 0 mm 2 mps 740 mmHg 64%
    19:00 +13°C° 0 mm 1 mps 741 mmHg 65%
    20:00 +13°C° 0 mm 1 mps 741 mmHg 65%
    21:00 +13°C° 0 mm 1 mps 741 mmHg 67%
    22:00 +13°C° 0 mm 1 mps 741 mmHg 69%
    23:00 +12°C° 0 mm 2 mps 741 mmHg 71%
    Show more